Location: Edinburgh
(55.9500°N, 3.1600°W)
Time: 23:21:07
(UTC+00:00)

Vanguard 3 - All Passes

Search period start: 23 January 2018 00:00
Search period end: 02 February 2018 00:00
Orbit: 508 x 3264 km, 33.4° (Epoch: 23 January)

Date Brightness Start Highest point End Pass type
(mag) Time Alt. Az. Time Alt. Az. Time Alt. Az.
23 Jan - 01:18:47 10° SW 01:31:08 31° SSE 01:46:40 10° ESE visible
23 Jan - 03:30:07 10° WSW 03:44:09 32° SSW 03:59:51 10° SE visible
23 Jan - 05:44:47 10° WSW 05:56:49 21° SW 06:08:47 10° S visible
23 Jan - 22:02:16 10° SSE 22:06:00 12° SE 22:10:09 10° ESE night (unlit)
24 Jan - 00:06:09 10° SSW 00:16:34 26° SSE 00:30:13 10° ESE visible
24 Jan - 02:15:59 10° SW 02:29:01 33° S 02:44:58 10° SE visible
24 Jan - 04:28:45 10° WSW 04:42:02 26° SSW 04:56:16 10° SSE visible
24 Jan - 06:47:51 10° WSW 06:53:53 12° SW 06:59:52 10° SSW visible
24 Jan - 22:54:37 10° S 23:02:35 20° SE 23:12:51 10° ESE night (unlit)
25 Jan - 01:02:38 10° SW 01:14:08 31° S 01:29:14 10° ESE visible
25 Jan - 03:13:53 10° WSW 03:27:00 30° SSW 03:42:23 10° SE visible
25 Jan - 05:28:43 10° WSW 05:39:34 19° SW 05:50:47 10° S visible
25 Jan - 21:45:37 10° SSE 21:49:13 12° SE 21:53:17 10° ESE night (unlit)
25 Jan - 23:50:04 10° SSW 23:59:42 26° SSE 00:12:46 10° ESE visible
26 Jan - 01:59:53 10° WSW 02:11:59 31° S 02:27:26 10° SE visible
26 Jan - 04:12:37 10° WSW 04:24:51 24° SSW 04:38:30 10° SSE visible
26 Jan - 06:35:22 10° SW 06:36:39 10° SW 06:37:56 10° SW visible
26 Jan - 22:38:30 10° S 22:45:50 19° SSE 22:55:29 10° ESE night (unlit)
27 Jan - 00:46:39 10° SW 00:57:15 30° S 01:11:40 10° ESE visible
27 Jan - 02:57:51 10° WSW 03:09:56 28° SSW 03:24:39 10° SSE visible
27 Jan - 05:13:03 10° WSW 05:22:23 16° SW 05:32:17 10° S visible
27 Jan - 21:29:20 10° SSE 21:32:34 12° SE 21:36:13 10° ESE night (unlit)
27 Jan - 23:34:08 10° SSW 23:42:58 25° SSE 23:55:12 10° ESE visible
28 Jan - 01:43:57 10° WSW 01:55:04 29° S 02:09:43 10° SE visible
28 Jan - 03:56:45 10° WSW 04:07:45 22° SSW 04:20:23 10° SSE visible
28 Jan - 22:22:35 10° S 22:29:14 19° SSE 22:38:03 10° ESE night (unlit)
29 Jan - 00:30:48 10° SW 00:40:30 28° S 00:53:58 10° SE visible
29 Jan - 02:42:00 10° WSW 02:52:58 25° SSW 03:06:41 10° SSE visible
29 Jan - 04:58:01 10° WSW 05:05:16 14° SW 05:13:03 10° SSW visible
29 Jan - 21:13:24 10° SSE 21:16:02 11° SE 21:18:59 10° SE night (unlit)
29 Jan - 23:18:22 10° SSW 23:26:22 24° SSE 23:37:35 10° ESE night (unlit)
30 Jan - 01:28:12 10° SW 01:38:17 27° S 01:51:50 10° SE visible
30 Jan - 03:41:13 10° WSW 03:50:45 19° SSW 04:01:54 10° S visible
30 Jan - 22:06:50 10° S 22:12:44 18° SSE 22:20:37 10° ESE night (unlit)
31 Jan - 00:15:07 10° SW 00:23:52 26° S 00:36:10 10° SE visible
31 Jan - 02:26:24 10° WSW 02:36:08 22° SSW 02:48:28 10° SSE visible
31 Jan - 04:44:27 10° SW 04:48:15 11° SW 04:52:13 10° SSW visible
31 Jan - 20:57:53 10° SSE 20:59:38 11° SE 21:01:32 10° SE night (unlit)
31 Jan - 23:02:44 10° SSW 23:09:53 22° SSE 23:19:56 10° ESE night (unlit)
01 Feb - 01:12:37 10° SW 01:21:37 24° S 01:33:47 10° SE visible
01 Feb - 03:26:07 10° WSW 03:33:51 16° SSW 03:42:53 10° S visible
01 Feb - 21:51:14 10° S 21:56:23 17° SSE 22:03:10 10° ESE night (unlit)
